Location: Martley
(52.2333°N, 2.3667°W)
Time: 04:33:46
(UTC+00:00)

Cosmos 1624 Rocket - Pass Details

Date: 11 December 2019
Orbit: 757 x 784 km, 74.0° (Epoch: 24 January)

Event Time Altitude Azimuth Distance (km) Brightness Sun altitude
Exits shadow 05:07:13 77° 335° (NNW) 809 3.9 -26.3°
Drops below altitude 10° 05:12:21 10° 24° (NNE) 2,354 6.7 -25.5°
Sets 05:14:45 0° 26° (NNE) 3,286 7.5 -25.2°
